Weather observations for the past three days for
Sarasota / Bradenton, Sarasota-Bradenton International Airport
| Date | Time (edt) | Wind (mph) | Vis. (mi.) | Weather | Sky Cond. | Temperature (ºF) | Relative Humidity | Wind Chill (°F) | Heat Index (°F) | Pressure | Precipitation (in) | ||||||
|---|---|---|---|---|---|---|---|---|---|---|---|---|---|---|---|---|---|
| Air | Dwpt | 6 hour | altimeter (in) | sea level (mb) | 1 hr | 3 hr | 6 hr | ||||||||||
| Max. | Min. | ||||||||||||||||
| 02 | 12:53 | NE 6 | 10.00 | Mostly Cloudy | BKN023 | 89.1 | 77 | 68% | 102 | 30 | 1015.8 | ||||||
| 02 | 11:53 | N 9 | 10.00 | Mostly Cloudy | BKN024 | 87.1 | 75.9 | 70% | 98 | 30.02 | 1016.3 | ||||||
| 02 | 10:53 | Vrbl 6 | 10.00 | Mostly Cloudy | BKN018 | 87.1 | 75.9 | 70% | 98 | 30.02 | 1016.4 | ||||||
| 02 | 09:53 | N 6 | 10.00 | Mostly Cloudy | BKN011 | 86 | 78.1 | 77% | 98 | 30.01 | 1016.2 | ||||||
| 02 | 08:53 | NE 8 | 10.00 | Fair | CLR | 82 | 77 | 85% | 90 | 30.02 | 1016.4 | ||||||
| 02 | 07:53 | NE 5 | 10.00 | Fair | CLR | 80.1 | 77 | 80.1 | 79 | 90% | 86 | 30.01 | 1016.0 | ||||
| 02 | 06:53 | NE 3 | 10.00 | Fair | CLR | 79 | 75 | 88% | 83 | 30 | 1015.8 | ||||||
| 02 | 05:53 | Calm | 10.00 | Rain | CLR | 79 | 75.9 | 90% | 83 | 29.99 | 1015.3 | ||||||
| 02 | 04:53 | Calm | 10.00 | Rain | CLR | 79 | 77 | 94% | 83 | 29.97 | 1014.8 | ||||||
| 02 | 03:53 | NE 3 | 10.00 | Rain | CLR | 79 | 75.9 | 90% | 83 | 29.97 | 1014.8 | ||||||
| 02 | 02:53 | NE 5 | 10.00 | Rain | CLR | 80.1 | 75.9 | 87% | 85 | 29.97 | 1014.9 | ||||||
| 02 | 01:53 | N 3 | 10.00 | Rain | CLR | 79 | 75.9 | 81 | 79 | 90% | 83 | 29.99 | 1015.3 | 0.11 | |||
| 02 | 00:53 | NE 5 | 10.00 | Rain | CLR | 80.1 | 75.9 | 87% | 85 | 30 | 1015.6 | ||||||
| 01 | 23:53 | Calm | 10.00 | Rain | SCT075 | 80.1 | 77 | 90% | 86 | 30 | 1015.8 | 0.07 | |||||
| 01 | 22:53 | NE 7 | 7.00 | Rain | SCT027 BKN041 OVC070 | 80.1 | 75.9 | 87% | 85 | 30.02 | 1016.6 | 0.03 | 0.04 | ||||
| 01 | 21:53 | Calm | 10.00 | Rain | FEW050 | 80.1 | 75.9 | 87% | 85 | 30.01 | 1016.2 | 0.01 | |||||
| 01 | 20:53 | Calm | 10.00 | Rain | FEW036 FEW120 | 81 | 75 | 82% | 87 | 30 | 1015.9 | ||||||
| 01 | 19:53 | Calm | 10.00 | Rain | FEW025 FEW034 | 80.1 | 75 | 93.9 | 77 | 85% | 85 | 30 | 1016.0 | 1.29 | |||
| 01 | 18:53 | Calm | 10.00 | Thunderstorm in Vicinity Rain | FEW046 FEW070 SCT090 | 82 | 75.9 | 82% | 89 | 29.99 | 1015.4 | 0.01 | |||||
| 01 | 17:53 | SE 3 | 6.00 | Rain | FEW039 SCT120 | 82 | 75.9 | 82% | 89 | 29.98 | 1015.0 | 0.09 | |||||
| 01 | 16:53 | NE 8 | 0.75 | Thunderstorm Heavy Rain Fog/Mist | BKN023 BKN041 OVC055 | 77 | 73 | 88% | 78 | 29.96 | 1014.4 | 1.19 | 1.19 | ||||
| 01 | 15:53 | Vrbl 5 | 10.00 | Partly Cloudy | SCT043 | 93 | 75 | 56% | 104 | 29.95 | 1014.2 | ||||||
| 01 | 14:53 | Calm | 10.00 | Partly Cloudy | SCT039 | 93 | 75 | 56% | 104 | 29.99 | 1015.3 | ||||||
| 01 | 13:53 | N 10 | 10.00 | Mostly Cloudy | BKN038 | 93 | 75 | 93 | 79 | 56% | 104 | 30.01 | 1016.0 | ||||
| 01 | 12:53 | NE 8 | 10.00 | A Few Clouds | FEW033 | 90 | 73.9 | 59% | 99 | 30.02 | 1016.6 | ||||||
| 01 | 11:53 | N 3 | 10.00 | Fair | CLR | 89.1 | 75 | 63% | 99 | 30.04 | 1017.1 | ||||||
| 01 | 10:53 | Calm | 10.00 | Mostly Cloudy | BKN014 | 87.1 | 77 | 72% | 99 | 30.04 | 1017.2 | ||||||
| 01 | 09:53 | NE 5 | 10.00 | Fair | CLR | 84.9 | 77 | 77% | 95 | 30.03 | 1016.8 | ||||||
| 01 | 08:53 | NE 6 | 10.00 | Fair | CLR | 82 | 77 | 85% | 90 | 30.02 | 1016.4 | ||||||
| 01 | 07:53 | NE 6 | 8.00 | Fair | CLR | 79 | 75.9 | 79 | 78.1 | 90% | 83 | 30.01 | 1016.2 | ||||
| 01 | 06:53 | NE 5 | 10.00 | Fair | CLR | 78.1 | 75 | 90% | 81 | 30 | 1015.7 | ||||||
| 01 | 05:53 | E 3 | 10.00 | Fair | CLR | 78.1 | 75 | 90% | 81 | 29.99 | 1015.5 | ||||||
| 01 | 04:53 | NE 3 | 10.00 | Fair | CLR | 78.1 | 75 | 90% | 81 | 29.99 | 1015.3 | ||||||
| 01 | 03:53 | NE 3 | 10.00 | Fair | CLR | 78.1 | 75 | 90% | 81 | 29.98 | 1015.2 | ||||||
| 01 | 02:53 | NE 6 | 10.00 | Fair | CLR | 78.1 | 75 | 90% | 81 | 29.99 | 1015.5 | ||||||
| 01 | 01:53 | NE 6 | 10.00 | Fair | CLR | 78.1 | 73.9 | 80.1 | 78.1 | 87% | 81 | 30.01 | 1016.1 | ||||
| 01 | 00:53 | NE 6 | 10.00 | Fair | CLR | 79 | 73.9 | 85% | 83 | 30.04 | 1017.0 | ||||||
| 31 | 23:53 | E 3 | 10.00 | Fair | CLR | 79 | 75 | 88% | 83 | 30.04 | 1017.2 | ||||||
| 31 | 22:53 | NE 5 | 10.00 | Fair | CLR | 80.1 | 75 | 85% | 85 | 30.04 | 1017.0 | ||||||
| 31 | 21:53 | E 5 | 10.00 | Fair | CLR | 80.1 | 73.9 | 82% | 85 | 30.03 | 1016.8 | ||||||
| 31 | 20:53 | E 5 | 10.00 | Fair | CLR | 79 | 73.9 | 85% | 83 | 30.02 | 1016.4 | ||||||
| 31 | 19:53 | NE 8 | 10.00 | Partly Cloudy | FEW055 FEW070 SCT090 | 79 | 73.9 | 90 | 79 | 85% | 83 | 30.01 | 1016.2 | 0.02 | 0.11 | ||
| 31 | 18:53 | NE 16 G 23 | 10.00 | Mostly Cloudy | FEW017 FEW028 BKN034 | 82 | 73.9 | 77% | 88 | 30.02 | 1016.6 | ||||||
| 31 | 17:53 | N 12 | 10.00 | Fair | CLR | 89.1 | 77 | 68% | 102 | 29.99 | 1015.3 | ||||||
| 31 | 16:53 | N 7 | 10.00 | Partly Cloudy | SCT100 | 87.1 | 77 | 72% | 99 | 29.99 | 1015.4 | 0.06 | 0.09 | ||||
| 31 | 15:53 | N 7 | 3.00 | Heavy Rain | BKN050 BKN060 OVC080 | 81 | 73 | 77% | 86 | 30 | 1015.7 | 0.03 | |||||
| 31 | 14:53 | W 10 | 10.00 | Light Rain | FEW034 BKN044 BKN055 | 88 | 77 | 70% | 100 | 30 | 1015.9 | ||||||
| 31 | 13:53 | W 8 | 10.00 | Partly Cloudy | SCT040 | 89.1 | 75.9 | 91.9 | 78.1 | 65% | 100 | 30.02 | 1016.4 | ||||
| 31 | 12:53 | E 6 | 10.00 | Mostly Cloudy | SCT033 BKN049 | 89.1 | 73.9 | 61% | 98 | 30.05 | 1017.3 | ||||||
| 31 | 11:53 | E 8 | 10.00 | Fair | CLR | 89.1 | 75 | 63% | 99 | 30.06 | 1017.7 | ||||||
| 31 | 10:53 | E 6 | 10.00 | Fair | CLR | 86 | 75.9 | 72% | 96 | 30.05 | 1017.6 | ||||||
| 31 | 09:53 | NE 6 | 10.00 | Fair | CLR | 84 | 75.9 | 77% | 93 | 30.05 | 1017.6 | ||||||
| 31 | 08:53 | E 5 | 10.00 | Fair | CLR | 81 | 75 | 82% | 87 | 30.04 | 1017.2 | ||||||
| 31 | 07:53 | E 6 | 10.00 | Fair | CLR | 78.1 | 73.9 | 78.1 | 77 | 87% | 81 | 30.02 | 1016.6 | ||||
| 31 | 06:53 | E 5 | 10.00 | Fair | CLR | 77 | 73.9 | 90% | 78 | 30 | 1015.7 | ||||||
| 31 | 05:53 | E 3 | 10.00 | Fair | CLR | 78.1 | 73.9 | 87% | 81 | 29.99 | 1015.6 | ||||||
| 31 | 04:53 | E 6 | 10.00 | Fair | CLR | 77 | 73 | 88% | 78 | 30 | 1015.7 | ||||||
| 31 | 03:53 | Calm | 10.00 | Fair | CLR | 77 | 73.9 | 90% | 78 | 30 | 1015.7 | ||||||
| 31 | 02:53 | Calm | 10.00 | Fair | CLR | 77 | 73.9 | 90% | 78 | 30.01 | 1016.1 | ||||||
| 31 | 01:53 | Calm | 10.00 | Fair | CLR | 77 | 73 | 79 | 77 | 88% | 78 | 30.01 | 1016.3 | ||||
| 31 | 00:53 | E 7 | 10.00 | Fair | CLR | 77 | 73 | 88% | 78 | 30.03 | 1016.7 | ||||||
| 30 | 23:53 | E 7 | 10.00 | Fair | CLR | 77 | 73.9 | 90% | 78 | 30.03 | 1016.8 | ||||||
| 30 | 22:53 | E 5 | 10.00 | Fair | CLR | 77 | 73 | 88% | 78 | 30.03 | 1016.9 | ||||||
| 30 | 21:53 | E 6 | 10.00 | Fair | CLR | 78.1 | 73.9 | 87% | 81 | 30.03 | 1016.9 | ||||||
| 30 | 20:53 | E 7 | 10.00 | Fair | CLR | 78.1 | 73.9 | 87% | 81 | 30.03 | 1016.7 | ||||||
| 30 | 19:53 | E 3 | 10.00 | Fair | CLR | 79 | 73.9 | 90 | 75.9 | 85% | 83 | 30.01 | 1016.2 | 1.18 | |||
| 30 | 18:53 | E 6 | 10.00 | Light Rain | BKN110 | 78.1 | 73.9 | 87% | 81 | 30 | 1015.9 | 0.01 | |||||
| 30 | 17:53 | E 9 | 3.00 | Fog/Mist | FEW085 | 78.1 | 73.9 | 87% | 81 | 30 | 1015.7 | 0.64 | |||||
| 30 | 16:53 | E 8 | 2.00 | Thunderstorm in Vicinity Heavy Rain | SCT023 BKN028 OVC048 | 77 | 72 | 85% | 78 | 30.01 | 1016.2 | 0.53 | 0.53 | ||||
| 30 | 15:53 | N 3 | 10.00 | Thunderstorm in Vicinity Light Rain | BKN020 | 87.1 | 73.9 | 65% | 95 | 29.99 | 1015.6 | ||||||
| 30 | 14:53 | SW 12 | 10.00 | Thunderstorm in Vicinity | BKN020 | 87.1 | 75.9 | 70% | 98 | 30.02 | 1016.4 | ||||||
| 30 | 13:53 | SW 10 | 10.00 | Overcast | FEW027 BKN036 OVC045 | 87.1 | 75.9 | 91 | 77 | 70% | 98 | 30.03 | 1016.9 | ||||
| Date | Time (edt) | Wind (mph) | Vis. (mi.) | Weather | Sky Cond. | Air | Dwpt | Max. | Min. | Relative Humidity | Wind Chill (°F) | Heat Index (°F) | altimeter (in) | sea level (mb) | 1 hr | 3 hr | 6 hr |
| 6 hour | |||||||||||||||||
| Temperature (ºF) | Pressure | Precipitation (in) | |||||||||||||||